Wind_Speed
22 22 22 22 21 22 22 20 20 20 20 19 19 20 20 20 20 21 20 20 20 19 19 19 19 18 18 19 19 19 20 20 20 20 20 20 21 21 21 21 21 21 21 22
23 23 23 24 23 23 23 22 21 21 23 22 22 22 22 22 22 22 20 20 20 19 19 20 20 19 19 19 19 20 20 20 20 20 20 21 22 22 22 23 23 23 23 23
24 25 25 25 23 23 24 24 24 23 23 23 23 22 23 22 21 20 19 19 20 21 20 21 21 20 20 20 20 21 21 21 21 22 22 22 22 23 23 23 23 23 24 24
25 25 27 25 24 25 26 26 25 25 24 23 23 23 22 22 22 20 20 20 20 20 20 21 21 20 20 20 21 21 22 22 22 22 21 22 22 22 23 23 23 23 24 25
27 27 27 25 25 26 27 26 25 24 24 23 23 24 23 23 23 22 21 21 21 22 22 21 21 21 22 21 22 22 22 22 23 23 23 23 23 23 23 23 23 23 24 25
29 30 29 26 25 26 27 28 26 25 25 24 24 24 24 24 23 22 22 23 24 23 23 22 21 22 23 22 22 22 22 23 23 24 24 24 24 24 24 23 23 23 24 24
30 30 29 27 26 25 27 27 27 26 25 25 25 24 24 24 24 23 23 23 24 24 24 24 23 24 23 22 22 23 23 24 24 24 24 24 23 23 23 23 23 23 24 24
32 32 29 27 27 26 27 27 27 26 26 27 26 25 24 24 24 24 24 24 24 24 24 24 24 23 23 24 23 23 23 23 24 24 24 23 23 23 23 23 23 23 24 24
33 33 31 29 28 27 27 27 27 28 27 27 26 25 24 24 25 25 25 25 25 24 25 24 23 23 23 23 23 23 22 23 23 24 24 23 23 23 23 24 23 23 23 23
32 32 31 30 29 28 27 28 28 27 28 28 26 24 24 25 25 25 25 25 24 24 25 24 24 23 23 23 23 23 23 23 24 25 24 24 24 23 23 23 23 22 23 22
33 32 31 30 29 29 29 29 28 28 29 28 26 26 26 26 26 26 26 25 25 25 25 25 25 25 24 24 24 25 25 25 25 25 26 25 24 23 23 22 22 23 23 23
34 34 33 32 32 32 31 31 30 30 30 29 28 28 27 27 27 27 26 25 25 26 26 26 26 26 26 25 25 25 25 26 25 25 25 23 23 22 22 23 23 23 22 22
34 34 34 33 33 32 32 31 31 30 28 26 27 27 26 26 26 26 27 26 26 27 27 27 26 26 27 27 26 25 26 25 24 24 23 23 23 22 22 22 23 23 23 23
33 34 34 34 34 33 32 31 31 30 28 27 27 26 26 26 26 26 27 28 28 28 28 28 27 27 27 27 26 25 25 25 24 22 22 22 22 22 22 22 22 21 21 22
34 34 34 34 35 34 33 32 31 31 29 27 27 28 27 27 27 27 27 28 29 29 28 28 27 27 27 26 25 24 24 23 23 22 22 22 22 21 21 21 21 20 19 20
32 33 33 34 34 33 32 31 30 30 29 26 25 26 27 27 27 27 27 27 28 28 27 27 26 26 26 26 25 25 24 23 23 23 22 22 21 21 21 20 20 20 21 21
30 30 30 31 31 31 31 30 29 28 27 25 25 26 26 26 27 27 27 27 27 27 26 26 26 26 25 26 25 24 24 23 24 23 22 22 21 21 20 20 20 21 22 23
27 27 27 27 28 28 28 28 27 26 25 25 25 26 26 26 26 26 26 26 25 25 25 25 25 25 24 24 23 23 23 23 22 22 21 21 21 21 21 21 21 22 23 23
24 25 25 25 26 26 25 26 25 24 24 24 24 25 25 25 25 25 25 25 24 24 24 24 24 24 24 23 23 23 22 22 22 21 21 21 22 22 22 22 22 23 23 24
23 23 23 24 25 25 23 23 22 22 22 23 23 24 23 24 24 23 23 23 23 23 23 23 23 23 23 22 22 23 22 22 22 22 22 23 22 22 22 22 23 23 24 24
21 22 22 23 23 24 23 23 23 22 23 23 23 23 22 22 22 23 23 23 23 23 23 23 23 22 22 22 22 22 22 22 22 22 23 24 23 23 22 22 23 24 24 23
20 20 21 21 22 22 22 23 23 22 22 22 22 23 23 22 21 21 21 22 22 22 22 22 22 22 22 22 22 22 22 22 22 22 23 23 23 23 23 23 24 24 24 24
19 19 20 20 20 21 21 22 21 21 21 22 22 22 22 21 20 20 20 21 22 22 21 21 21 21 22 22 22 22 22 22 22 22 22 22 23 23 23 23 24 24 24 24
17 17 18 18 18 18 18 18 20 20 20 21 21 21 21 21 21 21 21 22 22 21 21 21 21 21 22 22 22 23 23 23 23 22 22 23 23 23 23 23 24 24 24 24
15 16 16 16 16 16 16 17 18 19 19 20 20 21 21 21 21 21 21 21 21 21 21 21 22 22 22 22 23 23 23 23 23 23 23 23 23 24 24 25 25 25 25 25
13 13 14 15 15 15 16 17 17 18 18 19 19 19 19 19 20 21 21 21 21 21 21 21 21 22 22 23 23 23 24 23 23 23 23 24 24 24 25 25 25 25 25 25
12 13 13 14 14 15 15 15 16 17 17 17 17 16 17 17 18 19 20 20 20 20 20 20 20 21 22 22 22 23 24 24 24 24 25 24 25 25 25 25 24 25 25 25
Wind_Direction
255 256 256 258 259 262 265 270 274 277 282 287 290 291 292 290 289 295 300 301 301 299 299 300 299 295 295 297 299 300 301 302 301 300 302 300 299 299 299 298 298 297 298 300
255 256 257 260 263 264 268 271 273 275 279 283 286 288 290 292 294 296 298 298 300 302 304 302 299 293 292 294 296 298 301 302 301 301 303 303 301 299 298 298 298 298 298 299
254 255 259 260 263 264 268 272 273 276 279 280 283 287 291 295 296 297 298 299 299 300 303 303 299 294 294 296 297 300 300 299 299 300 300 302 302 300 299 299 299 299 299 299
256 256 257 260 262 264 268 272 275 276 277 278 282 289 292 294 297 296 298 298 298 303 304 301 302 299 296 295 296 297 297 297 299 299 298 299 301 301 301 302 302 302 301 300
257 259 261 260 263 266 270 272 274 278 278 279 284 289 290 293 295 292 293 292 295 300 301 299 299 297 296 295 295 296 297 297 298 298 298 301 302 303 302 302 302 302 303 303
257 260 261 262 264 266 268 269 273 278 279 281 285 288 292 293 293 291 291 294 295 296 298 297 298 297 296 295 295 295 296 296 297 297 298 302 303 305 306 302 302 304 304 305
255 258 260 261 263 266 266 268 271 274 277 279 280 285 289 290 290 290 289 291 295 295 296 295 299 300 297 294 294 296 297 297 296 296 298 300 302 302 303 303 302 302 304 304
255 257 259 262 264 267 269 268 267 269 272 274 276 280 283 285 286 288 288 290 293 294 294 295 299 300 299 297 295 296 297 298 297 297 298 299 300 302 302 302 302 301 302 302
255 258 262 263 264 265 267 269 268 267 268 271 274 276 280 283 285 287 288 289 291 292 295 296 297 297 299 299 297 298 297 298 298 299 298 298 299 300 301 301 301 302 302 301
256 257 261 263 264 265 266 269 269 269 268 270 271 275 278 280 282 285 287 288 290 292 293 294 295 296 297 298 298 299 298 298 298 299 298 297 298 300 301 301 301 300 302 302
254 257 259 261 262 265 265 267 266 268 271 274 274 273 275 280 283 284 286 286 288 290 292 294 295 297 297 297 298 298 298 299 297 296 298 297 297 298 299 300 301 301 300 301
251 255 258 259 261 264 265 267 268 268 270 273 275 276 276 280 282 282 284 285 285 287 289 290 292 294 296 296 297 298 298 297 297 297 297 299 298 298 298 298 300 300 300 301
250 253 255 258 261 263 265 268 270 271 272 272 274 275 275 277 280 282 284 284 284 284 286 289 291 293 295 296 297 297 298 297 297 297 297 298 296 297 298 299 300 299 298 300
253 254 255 258 261 263 265 268 272 275 273 272 273 273 275 276 278 281 283 285 285 284 284 287 289 290 293 295 296 296 297 297 298 297 296 296 297 296 297 298 299 299 300 300
252 254 257 259 260 262 263 266 271 275 274 272 271 273 274 276 278 281 283 285 285 283 284 286 288 290 292 293 294 296 296 296 296 297 295 294 295 295 296 296 298 299 300 303
252 254 257 258 258 261 264 265 270 274 273 273 271 271 274 276 278 280 282 285 285 284 285 285 286 289 290 291 292 294 296 296 297 298 297 296 295 294 294 295 297 300 301 303
252 254 255 256 258 259 263 266 268 268 270 270 270 272 274 276 277 279 282 284 285 283 284 284 285 286 288 289 291 292 295 296 297 297 295 295 294 294 292 293 296 299 302 303
253 253 254 255 256 259 261 263 264 265 269 268 268 270 272 274 276 278 281 282 284 284 283 283 284 285 287 289 290 291 294 296 296 295 294 292 292 293 292 294 297 298 301 302
255 255 255 256 258 259 259 260 259 263 265 267 270 272 272 273 275 277 279 281 284 284 283 283 284 285 286 288 291 291 293 294 295 293 292 291 292 292 294 296 298 298 299 300
255 257 257 257 260 261 260 260 260 262 265 269 272 273 273 274 275 277 278 280 282 283 283 283 284 285 285 286 288 289 290 292 292 292 291 290 290 291 294 297 298 297 298 300
259 258 260 260 261 261 262 262 264 267 268 270 272 274 276 278 278 277 278 279 280 282 283 284 284 285 285 286 287 288 288 289 290 290 290 288 288 290 292 294 295 296 297 298
263 260 259 260 259 260 262 263 264 266 268 270 272 274 275 278 278 278 278 279 279 281 282 284 284 283 285 286 287 289 289 290 291 290 290 289 289 289 291 294 294 295 296 296
261 261 263 264 263 263 263 265 267 266 267 269 272 273 274 276 277 278 278 279 280 280 282 283 283 282 282 284 286 288 289 291 291 290 289 289 290 290 291 293 294 295 295 296
264 265 265 265 265 265 265 266 268 268 268 270 272 272 273 275 276 278 279 280 281 280 281 281 282 284 284 284 286 287 288 290 290 290 290 291 292 291 291 293 294 294 295 296
266 267 265 263 263 264 265 266 267 269 271 272 273 273 273 274 276 278 279 281 280 280 282 282 283 284 285 284 285 286 287 288 289 290 290 290 291 292 292 294 295 294 295 295
266 265 261 263 264 263 262 263 265 268 271 274 275 275 274 275 277 280 281 283 284 283 283 283 284 286 287 287 286 287 288 288 288 288 288 288 290 292 293 293 294 294 295 297
268 266 264 265 267 267 267 266 267 270 272 275 276 276 276 277 280 282 282 282 284 285 285 286 287 287 288 287 289 290 289 287 287 288 288 289 290 291 292 293 294 294 294 294
Height
5873 5873 5874 5874 5875 5875 5875 5874 5874 5873 5872 5871 5871 5870 5869 5869 5867 5866 5865 5864 5862 5860 5859 5857 5855 5853 5851 5850 5849 5847 5844 5841 5839 5837 5835 5833 5830 5827 5825 5823 5821 5818 5816 5814
5867 5868 5868 5869 5869 5869 5869 5868 5868 5868 5868 5867 5866 5866 5865 5863 5863 5861 5860 5859 5857 5855 5854 5851 5849 5848 5846 5845 5843 5841 5839 5837 5834 5831 5829 5827 5824 5822 5819 5816 5814 5812 5810 5807
5861 5862 5862 5863 5864 5863 5863 5862 5863 5863 5864 5862 5861 5860 5859 5858 5857 5856 5855 5854 5852 5850 5848 5846 5844 5842 5840 5839 5837 5835 5833 5831 5829 5826 5824 5821 5818 5815 5813 5810 5808 5805 5803 5800
5853 5856 5856 5860 5858 5857 5857 5857 5857 5857 5857 5856 5856 5855 5853 5852 5852 5851 5849 5848 5847 5845 5843 5841 5839 5837 5835 5833 5831 5829 5827 5825 5822 5820 5818 5815 5812 5809 5807 5804 5801 5799 5796 5793
5846 5847 5848 5851 5851 5851 5851 5850 5850 5850 5850 5850 5849 5849 5848 5847 5846 5845 5844 5842 5841 5839 5837 5835 5833 5831 5829 5827 5825 5823 5821 5818 5816 5813 5811 5808 5806 5803 5800 5798 5795 5792 5789 5786
5838 5839 5841 5844 5845 5844 5844 5843 5844 5844 5844 5843 5843 5843 5842 5841 5840 5839 5837 5836 5834 5833 5831 5828 5826 5825 5823 5820 5819 5817 5814 5812 5809 5807 5804 5802 5799 5797 5794 5791 5788 5785 5782 5779
5831 5831 5833 5835 5836 5837 5838 5838 5838 5837 5837 5837 5837 5837 5836 5834 5834 5832 5831 5829 5828 5826 5824 5822 5820 5819 5817 5814 5812 5810 5807 5805 5802 5800 5797 5795 5793 5790 5787 5784 5781 5779 5776 5773
5823 5824 5827 5828 5829 5830 5830 5830 5830 5830 5830 5830 5830 5830 5829 5828 5827 5825 5824 5823 5821 5819 5817 5816 5814 5812 5809 5807 5804 5802 5800 5798 5795 5792 5790 5788 5786 5783 5781 5778 5775 5772 5769 5766
5816 5818 5818 5819 5820 5821 5822 5822 5823 5823 5823 5823 5823 5822 5821 5821 5820 5818 5817 5816 5814 5812 5811 5809 5807 5805 5803 5800 5798 5796 5794 5791 5788 5787 5784 5782 5779 5777 5774 5772 5769 5766 5763 5760
5807 5807 5809 5811 5812 5813 5814 5815 5815 5815 5815 5815 5815 5814 5814 5814 5813 5812 5810 5809 5807 5805 5804 5802 5800 5798 5796 5794 5792 5790 5788 5786 5783 5781 5778 5775 5772 5770 5768 5765 5762 5760 5757 5754
5798 5800 5801 5802 5803 5805 5806 5806 5807 5807 5808 5808 5807 5807 5807 5807 5806 5805 5803 5802 5800 5799 5797 5795 5794 5792 5789 5788 5785 5783 5781 5779 5776 5773 5771 5768 5765 5763 5761 5759 5756 5754 5751 5748
5790 5792 5793 5794 5795 5796 5796 5797 5798 5799 5799 5800 5799 5800 5799 5799 5798 5797 5796 5795 5793 5792 5790 5789 5787 5785 5783 5781 5779 5776 5774 5771 5769 5766 5764 5761 5759 5756 5754 5752 5750 5747 5745 5743
5781 5783 5785 5786 5786 5787 5788 5788 5788 5789 5790 5790 5791 5791 5791 5791 5790 5789 5788 5787 5785 5784 5782 5781 5779 5777 5775 5773 5771 5769 5766 5763 5761 5759 5756 5754 5752 5750 5748 5746 5743 5741 5739 5736
5772 5774 5776 5777 5778 5779 5779 5779 5780 5780 5780 5781 5782 5782 5783 5783 5782 5781 5780 5778 5776 5775 5774 5773 5771 5770 5768 5766 5764 5761 5759 5756 5754 5752 5750 5747 5745 5743 5741 5739 5737 5735 5733 5730
5763 5765 5767 5768 5769 5770 5770 5771 5772 5772 5772 5772 5773 5773 5773 5774 5773 5772 5771 5770 5768 5767 5766 5765 5763 5762 5760 5758 5756 5754 5752 5749 5747 5745 5743 5740 5738 5737 5735 5733 5731 5729 5727 5724
5753 5755 5757 5758 5760 5760 5761 5762 5763 5764 5764 5764 5765 5765 5765 5765 5764 5764 5762 5761 5760 5758 5757 5756 5755 5753 5752 5750 5748 5746 5744 5742 5740 5738 5736 5733 5732 5730 5729 5727 5725 5723 5721 5718
5744 5746 5748 5749 5751 5752 5753 5753 5754 5755 5756 5756 5757 5757 5756 5756 5756 5755 5754 5752 5751 5750 5748 5747 5747 5745 5744 5742 5740 5738 5737 5735 5733 5731 5730 5728 5726 5724 5723 5721 5719 5717 5715 5712
5736 5738 5739 5740 5741 5743 5744 5745 5746 5747 5747 5748 5748 5748 5748 5747 5747 5747 5745 5744 5743 5742 5741 5740 5739 5738 5736 5735 5732 5731 5730 5728 5727 5725 5723 5722 5720 5719 5717 5715 5713 5711 5709 5706
5728 5730 5731 5732 5733 5734 5735 5736 5736 5738 5739 5740 5740 5740 5739 5739 5739 5738 5738 5736 5735 5734 5733 5732 5731 5730 5729 5728 5726 5724 5723 5721 5720 5718 5717 5715 5714 5712 5710 5708 5707 5705 5703 5700
5721 5722 5723 5725 5725 5726 5727 5728 5729 5729 5730 5731 5731 5731 5730 5730 5730 5730 5729 5729 5728 5727 5726 5725 5724 5723 5721 5720 5719 5717 5716 5714 5713 5711 5710 5709 5707 5705 5704 5702 5700 5698 5696 5693
5715 5715 5716 5718 5718 5719 5720 5721 5722 5722 5722 5723 5723 5722 5722 5722 5722 5722 5721 5721 5720 5719 5718 5717 5716 5715 5714 5713 5712 5710 5709 5707 5706 5704 5703 5701 5700 5699 5697 5695 5693 5691 5689 5687
5709 5709 5710 5711 5712 5712 5713 5713 5714 5714 5714 5715 5715 5715 5715 5715 5715 5714 5714 5713 5713 5712 5711 5710 5709 5708 5707 5706 5705 5703 5702 5700 5699 5697 5696 5694 5693 5691 5690 5688 5686 5684 5681 5679
5703 5703 5703 5704 5705 5705 5706 5706 5706 5707 5707 5708 5708 5708 5708 5708 5707 5707 5707 5706 5705 5704 5704 5703 5702 5701 5700 5699 5698 5697 5695 5693 5692 5690 5689 5687 5685 5684 5682 5680 5678 5676 5674 5672
5697 5698 5698 5698 5698 5699 5699 5699 5699 5700 5701 5701 5701 5701 5701 5701 5700 5700 5699 5699 5698 5697 5697 5696 5695 5694 5692 5691 5690 5689 5687 5686 5684 5683 5682 5680 5678 5676 5675 5673 5671 5669 5667 5664
5692 5692 5692 5693 5693 5694 5694 5694 5694 5694 5694 5694 5694 5694 5694 5694 5694 5693 5692 5692 5691 5690 5690 5688 5687 5686 5685 5684 5683 5681 5680 5678 5677 5676 5674 5672 5671 5669 5667 5665 5663 5661 5658 5656
5687 5688 5688 5688 5688 5688 5689 5689 5689 5689 5688 5688 5687 5687 5687 5687 5686 5686 5686 5685 5684 5683 5682 5681 5680 5679 5678 5676 5675 5673 5672 5671 5669 5668 5666 5664 5662 5660 5658 5656 5654 5652 5650 5648
5683 5683 5683 5684 5684 5684 5684 5684 5683 5683 5683 5683 5682 5681 5681 5681 5680 5680 5679 5678 5677 5677 5676 5675 5673 5672 5671 5669 5667 5666 5664 5662 5661 5659 5658 5656 5654 5652 5650 5648 5646 5643 5641 5640